Flag for China Weather past 2 weeks in Chongqing, Chongqing Municipality, China

Now
68 °F

Light rain. Fog.


Feels Like: 68 °F
Forecast: 75 / 79 °F
Wind: 1 mph from North

Location: Chongqing Airport

Current Time: Sep 16, 2014 at 10:01:00 AM

Latest Report: Sep 16, 2014 at 9:00 AM


Visibility: 2 mi

Pressure: 29.89 "Hg

Humidity: 94%

Dew point: 66 °F

Location of ChongqingLocation

Historic Weather in Chongqing — Graph

°F

Chongqing temperature yesterday

Maximum temperature yesterday: 73 °F (at 12:00 AM)
Minimum temperature yesterday: 70 °F (at 2:00 AM)
Average temperature yesterday: 70 °F

Past Weeks' High & Low Weather Summary

 TemperatureHumidityPressure
High93 °F (Sep 10, 2:00 PM)94% (Sep 1, 10:00 PM)30.01 "Hg (Sep 1, 10:00 PM)
Low66 °F (Sep 4, 10:00 AM)49% (Sep 11, 2:00 PM)29.56 "Hg (Sep 11, 3:00 PM)
Average78 °F79%29.77 "Hg
* Reported Sep 1 9:00 AM — Sep 16 9:00 AM, Chongqing, Weather by CustomWeather, © 2014

Note: Actual official high and low records may vary slightly from our data, if they occured in-between our weather recording intervals... More about our weather records

Advertising

Chongqing weather history for previous 24 hours

 ConditionsComfort  
Time TempWeatherWind HumidityBarometerVisibility
9:00 AM
Sep 16
68 °FLight rain. Fog.1 mph94%29.89 "Hg2 mi
8:00 AM68 °FLight rain. Fog.3 mph94%29.89 "Hg1 mi
7:00 AM68 °FLight rain. Fog.1 mph94%29.89 "Hg2 mi
6:00 AM68 °FLight rain. Fog.1 mph94%29.86 "Hg3 mi
5:00 AM68 °FLight rain. Fog.1 mph94%29.86 "Hg3 mi
4:00 AM68 °FLight rain. Fog.1 mph94%29.86 "Hg2 mi
3:00 AM68 °FLight rain. Fog.3 mph94%29.89 "Hg2 mi
2:00 AM68 °FLight rain. Fog.3 mph94%29.89 "Hg1 mi
1:00 AM70 °FFog.1 mph88%29.89 "Hg1 mi
12:00 AM68 °FLight rain. Fog.3 mph94%29.89 "Hg2 mi
11:00 PM
Sep 15
70 °FLight rain. Fog.6 mph88%29.92 "Hg2 mi
10:00 PM70 °FFog.3 mph83%29.89 "Hg2 mi
9:00 PM70 °FFog.1 mph88%29.89 "Hg2 mi
8:00 PM70 °FFog.1 mph88%29.86 "Hg3 mi
7:00 PM70 °FMostly cloudy.1 mph88%29.86 "Hg4 mi
6:00 PM70 °FFog.3 mph83%29.86 "Hg2 mi
5:00 PM70 °FLight rain. Fog.6 mph88%29.83 "Hg2 mi
4:00 PM70 °FDrizzle. Fog.8 mph88%29.86 "Hg2 mi
3:00 PM70 °FScattered clouds.8 mph88%29.86 "Hg4 mi
2:00 PM72 °FScattered clouds.8 mph83%29.86 "Hg4 mi
1:00 PM72 °FScattered clouds.8 mph83%29.89 "Hg4 mi
12:00 PM72 °FScattered clouds.8 mph83%29.89 "Hg4 mi
11:00 AM70 °FScattered clouds.6 mph94%29.89 "Hg4 mi
10:00 AM70 °FLight rain. Fog.6 mph88%29.89 "Hg1 mi
Weather by CustomWeather, © 2014

See weather overviewHow to use our weather pages